Time,TemperatureF,DewpointF,PressureIn,WindDirection,WindDirectionDegrees,WindSpeedMPH,WindSpeedGustMPH,Humidity,HourlyPrecipIn,Conditions,Clouds,dailyrainin,SoftwareType,DateUTC
2013-04-26 00:07:00,53.1,44.6,29.75,North,-999,-999.0,-999.0,73,-99.99,,,-99.99,meteohub,2013-04-25 23:07:00,
2013-04-26 00:12:00,53.1,44.6,29.75,North,-999,-999.0,-999.0,73,-99.99,,,-99.99,meteohub,2013-04-25 23:12:00,
2013-04-26 00:17:00,53.2,45.1,29.75,North,-999,-999.0,-999.0,74,-99.99,,,-99.99,meteohub,2013-04-25 23:17:00,
2013-04-26 00:22:00,53.4,45.3,29.75,North,-999,-999.0,-999.0,74,-99.99,,,-99.99,meteohub,2013-04-25 23:22:00,
2013-04-26 00:27:00,53.6,45.9,29.75,North,-999,-999.0,-999.0,75,-99.99,,,-99.99,meteohub,2013-04-25 23:27:00,
2013-04-26 00:32:00,54.0,46.6,29.75,North,-999,-999.0,-999.0,76,-99.99,,,-99.99,meteohub,2013-04-25 23:32:00,
2013-04-26 00:37:00,54.0,46.6,29.75,North,-999,-999.0,-999.0,76,-99.99,,,-99.99,meteohub,2013-04-25 23:37:00,
2013-04-26 00:42:00,54.0,46.2,29.75,North,-999,-999.0,-999.0,75,-99.99,,,-99.99,meteohub,2013-04-25 23:42:00,
2013-04-26 00:47:00,54.1,46.4,29.75,North,-999,-999.0,-999.0,75,-99.99,,,-99.99,meteohub,2013-04-25 23:47:00,
2013-04-26 00:52:00,54.1,46.4,29.75,North,-999,-999.0,-999.0,75,-99.99,,,-99.99,meteohub,2013-04-25 23:52:00,
2013-04-26 00:57:00,54.0,45.9,29.75,North,-999,-999.0,-999.0,74,-99.99,,,-99.99,meteohub,2013-04-25 23:57:00,
2013-04-26 01:02:00,54.0,45.9,29.75,North,-999,-999.0,-999.0,74,-99.99,,,-99.99,meteohub,2013-04-26 00:02:00,
2013-04-26 01:07:00,53.8,45.3,29.75,North,-999,-999.0,-999.0,73,-99.99,,,-99.99,meteohub,2013-04-26 00:07:00,
2013-04-26 01:12:00,53.4,45.0,29.75,North,-999,-999.0,-999.0,73,-99.99,,,-99.99,meteohub,2013-04-26 00:12:00,
2013-04-26 01:17:00,53.2,44.8,29.75,North,-999,-999.0,-999.0,73,-99.99,,,-99.99,meteohub,2013-04-26 00:17:00,
2013-04-26 01:22:00,53.1,44.6,29.75,North,-999,-999.0,-999.0,73,-99.99,,,-99.99,meteohub,2013-04-26 00:22:00,
2013-04-26 01:27:00,52.5,44.1,29.75,North,-999,-999.0,-999.0,73,-99.99,,,-99.99,meteohub,2013-04-26 00:27:00,
2013-04-26 01:32:00,52.3,44.2,29.75,North,-999,-999.0,-999.0,74,-99.99,,,-99.99,meteohub,2013-04-26 00:32:00,
2013-04-26 01:37:00,52.2,44.1,29.75,North,-999,-999.0,-999.0,74,-99.99,,,-99.99,meteohub,2013-04-26 00:37:00,
2013-04-26 01:42:00,52.0,43.9,29.75,North,-999,-999.0,-999.0,74,-99.99,,,-99.99,meteohub,2013-04-26 00:42:00,
2013-04-26 01:47:00,51.6,43.7,29.75,North,-999,-999.0,-999.0,74,-99.99,,,-99.99,meteohub,2013-04-26 00:47:00,
2013-04-26 01:52:00,51.4,43.9,29.75,North,-999,-999.0,-999.0,75,-99.99,,,-99.99,meteohub,2013-04-26 00:52:00,
2013-04-26 01:57:00,51.1,43.5,29.75,North,-999,-999.0,-999.0,75,-99.99,,,-99.99,meteohub,2013-04-26 00:57:00,
2013-04-26 02:02:00,50.2,42.6,29.75,North,-999,-999.0,-999.0,75,-99.99,,,-99.99,meteohub,2013-04-26 01:02:00,
2013-04-26 02:07:00,49.8,42.6,29.75,North,-999,-999.0,-999.0,76,-99.99,,,-99.99,meteohub,2013-04-26 01:07:00,
2013-04-26 02:12:00,49.3,42.4,29.75,North,-999,-999.0,-999.0,77,-99.99,,,-99.99,meteohub,2013-04-26 01:12:00,
2013-04-26 02:17:00,48.7,42.3,29.75,North,-999,-999.0,-999.0,78,-99.99,,,-99.99,meteohub,2013-04-26 01:17:00,
2013-04-26 02:22:00,48.6,42.1,29.75,North,-999,-999.0,-999.0,78,-99.99,,,-99.99,meteohub,2013-04-26 01:22:00,
2013-04-26 02:27:00,48.4,42.3,29.75,North,-999,-999.0,-999.0,79,-99.99,,,-99.99,meteohub,2013-04-26 01:27:00,
2013-04-26 02:32:00,48.2,42.3,29.75,North,-999,-999.0,-999.0,80,-99.99,,,-99.99,meteohub,2013-04-26 01:32:00,
2013-04-26 02:37:00,47.8,42.3,29.75,North,-999,-999.0,-999.0,81,-99.99,,,-99.99,meteohub,2013-04-26 01:37:00,
2013-04-26 02:42:00,47.7,42.1,29.75,North,-999,-999.0,-999.0,81,-99.99,,,-99.99,meteohub,2013-04-26 01:42:00,
2013-04-26 02:47:00,47.3,41.7,29.75,North,-999,-999.0,-999.0,81,-99.99,,,-99.99,meteohub,2013-04-26 01:47:00,
2013-04-26 02:52:00,46.9,41.7,29.75,North,-999,-999.0,-999.0,82,-99.99,,,-99.99,meteohub,2013-04-26 01:52:00,
2013-04-26 02:57:00,46.8,41.9,29.75,North,-999,-999.0,-999.0,83,-99.99,,,-99.99,meteohub,2013-04-26 01:57:00,
2013-04-26 03:02:00,46.6,42.1,29.75,North,-999,-999.0,-999.0,84,-99.99,,,-99.99,meteohub,2013-04-26 02:02:00,
2013-04-26 03:07:00,46.4,42.1,29.72,North,-999,-999.0,-999.0,85,-99.99,,,-99.99,meteohub,2013-04-26 02:07:00,
2013-04-26 03:12:00,46.4,42.1,29.72,North,-999,-999.0,-999.0,85,-99.99,,,-99.99,meteohub,2013-04-26 02:12:00,
2013-04-26 03:17:00,46.2,41.9,29.72,North,-999,-999.0,-999.0,85,-99.99,,,-99.99,meteohub,2013-04-26 02:17:00,
2013-04-26 03:22:00,46.0,42.4,29.75,North,-999,-999.0,-999.0,87,-99.99,,,-99.99,meteohub,2013-04-26 02:22:00,
2013-04-26 03:27:00,45.9,42.3,29.75,North,-999,-999.0,-999.0,87,-99.99,,,-99.99,meteohub,2013-04-26 02:27:00,
2013-04-26 03:32:00,45.7,42.6,29.75,North,-999,-999.0,-999.0,89,-99.99,,,-99.99,meteohub,2013-04-26 02:32:00,
2013-04-26 03:37:00,45.5,42.8,29.75,North,-999,-999.0,-999.0,90,-99.99,,,-99.99,meteohub,2013-04-26 02:37:00,
2013-04-26 03:42:00,45.5,43.0,29.75,North,-999,-999.0,-999.0,91,-99.99,,,-99.99,meteohub,2013-04-26 02:42:00,
2013-04-26 03:47:00,45.3,42.8,29.75,North,-999,-999.0,-999.0,91,-99.99,,,-99.99,meteohub,2013-04-26 02:47:00,
2013-04-26 03:52:00,45.3,43.2,29.75,North,-999,-999.0,-999.0,92,-99.99,,,-99.99,meteohub,2013-04-26 02:52:00,
2013-04-26 03:57:00,45.3,43.7,29.75,North,-999,-999.0,-999.0,94,-99.99,,,-99.99,meteohub,2013-04-26 02:57:00,
2013-04-26 04:02:00,45.3,43.7,29.75,North,-999,-999.0,-999.0,94,-99.99,,,-99.99,meteohub,2013-04-26 03:02:00,
2013-04-26 04:07:00,45.3,44.1,29.75,North,-999,-999.0,-999.0,95,-99.99,,,-99.99,meteohub,2013-04-26 03:07:00,
2013-04-26 04:12:00,45.1,44.1,29.75,North,-999,-999.0,-999.0,96,-99.99,,,-99.99,meteohub,2013-04-26 03:12:00,
2013-04-26 04:17:00,45.1,44.1,29.75,North,-999,-999.0,-999.0,96,-99.99,,,-99.99,meteohub,2013-04-26 03:17:00,
2013-04-26 04:22:00,44.8,43.7,29.72,North,-999,-999.0,-999.0,96,-99.99,,,-99.99,meteohub,2013-04-26 03:22:00,
2013-04-26 04:27:00,44.8,43.7,29.72,North,-999,-999.0,-999.0,96,-99.99,,,-99.99,meteohub,2013-04-26 03:27:00,
2013-04-26 04:32:00,44.6,43.3,29.72,North,-999,-999.0,-999.0,95,-99.99,,,-99.99,meteohub,2013-04-26 03:32:00,
2013-04-26 04:37:00,44.4,43.3,29.72,North,-999,-999.0,-999.0,96,-99.99,,,-99.99,meteohub,2013-04-26 03:37:00,
2013-04-26 04:42:00,44.4,43.3,29.72,North,-999,-999.0,-999.0,96,-99.99,,,-99.99,meteohub,2013-04-26 03:42:00,
2013-04-26 04:47:00,44.2,43.2,29.72,North,-999,-999.0,-999.0,96,-99.99,,,-99.99,meteohub,2013-04-26 03:47:00,
2013-04-26 04:52:00,44.2,43.2,29.72,North,-999,-999.0,-999.0,96,-99.99,,,-99.99,meteohub,2013-04-26 03:52:00,
2013-04-26 04:57:00,44.1,43.0,29.72,North,-999,-999.0,-999.0,96,-99.99,,,-99.99,meteohub,2013-04-26 03:57:00,
2013-04-26 05:02:00,44.1,43.0,29.72,North,-999,-999.0,-999.0,96,-99.99,,,-99.99,meteohub,2013-04-26 04:02:00,
2013-04-26 05:07:00,44.1,43.0,29.72,North,-999,-999.0,-999.0,96,-99.99,,,-99.99,meteohub,2013-04-26 04:07:00,
2013-04-26 05:12:00,44.1,43.0,29.72,North,-999,-999.0,-999.0,96,-99.99,,,-99.99,meteohub,2013-04-26 04:12:00,
2013-04-26 05:17:00,43.9,42.8,29.72,North,-999,-999.0,-999.0,96,-99.99,,,-99.99,meteohub,2013-04-26 04:17:00,
2013-04-26 05:22:00,43.9,42.8,29.72,North,-999,-999.0,-999.0,96,-99.99,,,-99.99,meteohub,2013-04-26 04:22:00,
2013-04-26 05:27:00,43.7,42.6,29.72,North,-999,-999.0,-999.0,96,-99.99,,,-99.99,meteohub,2013-04-26 04:27:00,
2013-04-26 05:32:00,43.7,42.6,29.72,North,-999,-999.0,-999.0,96,-99.99,,,-99.99,meteohub,2013-04-26 04:32:00,
2013-04-26 05:37:00,43.5,42.4,29.72,North,-999,-999.0,-999.0,96,-99.99,,,-99.99,meteohub,2013-04-26 04:37:00,
2013-04-26 05:42:00,43.5,42.4,29.72,North,-999,-999.0,-999.0,96,-99.99,,,-99.99,meteohub,2013-04-26 04:42:00,
2013-04-26 05:47:00,43.5,42.4,29.72,North,-999,-999.0,-999.0,96,-99.99,,,-99.99,meteohub,2013-04-26 04:47:00,
2013-04-26 05:52:00,43.3,42.1,29.72,North,-999,-999.0,-999.0,95,-99.99,,,-99.99,meteohub,2013-04-26 04:52:00,
2013-04-26 05:57:00,43.3,42.1,29.72,North,-999,-999.0,-999.0,95,-99.99,,,-99.99,meteohub,2013-04-26 04:57:00,
2013-04-26 06:02:00,43.3,42.1,29.72,North,-999,-999.0,-999.0,95,-99.99,,,-99.99,meteohub,2013-04-26 05:02:00,
2013-04-26 06:07:00,43.3,42.3,29.75,North,-999,-999.0,-999.0,96,-99.99,,,-99.99,meteohub,2013-04-26 05:07:00,
2013-04-26 06:12:00,43.3,42.3,29.75,North,-999,-999.0,-999.0,96,-99.99,,,-99.99,meteohub,2013-04-26 05:12:00,
2013-04-26 06:17:00,43.3,42.3,29.75,North,-999,-999.0,-999.0,96,-99.99,,,-99.99,meteohub,2013-04-26 05:17:00,
2013-04-26 06:22:00,43.3,42.3,29.72,North,-999,-999.0,-999.0,96,-99.99,,,-99.99,meteohub,2013-04-26 05:22:00,
2013-04-26 06:27:00,43.2,42.1,29.72,North,-999,-999.0,-999.0,96,-99.99,,,-99.99,meteohub,2013-04-26 05:27:00,
2013-04-26 06:32:00,43.3,42.3,29.72,North,-999,-999.0,-999.0,96,-99.99,,,-99.99,meteohub,2013-04-26 05:32:00,
2013-04-26 06:37:00,43.3,42.3,29.72,North,-999,-999.0,-999.0,96,-99.99,,,-99.99,meteohub,2013-04-26 05:37:00,
2013-04-26 06:42:00,43.3,42.3,29.72,North,-999,-999.0,-999.0,96,-99.99,,,-99.99,meteohub,2013-04-26 05:42:00,
2013-04-26 06:47:00,43.3,42.3,29.72,North,-999,-999.0,-999.0,96,-99.99,,,-99.99,meteohub,2013-04-26 05:47:00,
2013-04-26 06:52:00,43.5,42.4,29.72,North,-999,-999.0,-999.0,96,-99.99,,,-99.99,meteohub,2013-04-26 05:52:00,
2013-04-26 06:57:00,43.5,42.8,29.72,North,-999,-999.0,-999.0,97,-99.99,,,-99.99,meteohub,2013-04-26 05:57:00,
2013-04-26 07:02:00,43.5,42.8,29.72,North,-999,-999.0,-999.0,97,-99.99,,,-99.99,meteohub,2013-04-26 06:02:00,
2013-04-26 07:07:00,43.5,42.8,29.72,North,-999,-999.0,-999.0,97,-99.99,,,-99.99,meteohub,2013-04-26 06:07:00,
2013-04-26 07:12:00,43.7,43.0,29.72,North,-999,-999.0,-999.0,97,-99.99,,,-99.99,meteohub,2013-04-26 06:12:00,
2013-04-26 07:17:00,43.7,43.0,29.72,North,-999,-999.0,-999.0,97,-99.99,,,-99.99,meteohub,2013-04-26 06:17:00,
2013-04-26 07:22:00,43.9,43.2,29.72,North,-999,-999.0,-999.0,97,-99.99,,,-99.99,meteohub,2013-04-26 06:22:00,
2013-04-26 07:27:00,43.9,43.2,29.72,North,-999,-999.0,-999.0,97,-99.99,,,-99.99,meteohub,2013-04-26 06:27:00,
2013-04-26 07:32:00,44.1,43.3,29.72,North,-999,-999.0,-999.0,97,-99.99,,,-99.99,meteohub,2013-04-26 06:32:00,
2013-04-26 07:37:00,44.2,43.5,29.72,North,-999,-999.0,-999.0,97,-99.99,,,-99.99,meteohub,2013-04-26 06:37:00,
2013-04-26 07:42:00,44.2,43.5,29.72,North,-999,-999.0,-999.0,97,-99.99,,,-99.99,meteohub,2013-04-26 06:42:00,
2013-04-26 07:47:00,44.4,43.7,29.72,North,-999,-999.0,-999.0,97,-99.99,,,-99.99,meteohub,2013-04-26 06:47:00,
2013-04-26 07:52:00,44.4,43.7,29.72,North,-999,-999.0,-999.0,97,-99.99,,,-99.99,meteohub,2013-04-26 06:52:00,
2013-04-26 07:57:00,44.4,43.7,29.72,North,-999,-999.0,-999.0,97,-99.99,,,-99.99,meteohub,2013-04-26 06:57:00,
2013-04-26 08:02:00,44.4,43.7,29.72,North,-999,-999.0,-999.0,97,-99.99,,,-99.99,meteohub,2013-04-26 07:02:00,
2013-04-26 08:07:00,44.6,43.5,29.72,North,-999,-999.0,-999.0,96,-99.99,,,-99.99,meteohub,2013-04-26 07:07:00,
2013-04-26 08:12:00,44.8,43.7,29.72,North,-999,-999.0,-999.0,96,-99.99,,,-99.99,meteohub,2013-04-26 07:12:00,
2013-04-26 08:17:00,44.8,43.7,29.72,North,-999,-999.0,-999.0,96,-99.99,,,-99.99,meteohub,2013-04-26 07:17:00,
2013-04-26 08:22:00,44.8,43.7,29.72,North,-999,-999.0,-999.0,96,-99.99,,,-99.99,meteohub,2013-04-26 07:22:00,
2013-04-26 08:27:00,45.0,43.9,29.72,North,-999,-999.0,-999.0,96,-99.99,,,-99.99,meteohub,2013-04-26 07:27:00,
2013-04-26 08:32:00,45.1,44.1,29.72,North,-999,-999.0,-999.0,96,-99.99,,,-99.99,meteohub,2013-04-26 07:32:00,
2013-04-26 08:37:00,45.1,44.1,29.72,North,-999,-999.0,-999.0,96,-99.99,,,-99.99,meteohub,2013-04-26 07:37:00,
2013-04-26 08:42:00,45.7,45.0,29.72,North,-999,-999.0,-999.0,97,-99.99,,,-99.99,meteohub,2013-04-26 07:42:00,
2013-04-26 08:47:00,46.4,45.7,29.72,North,-999,-999.0,-999.0,97,-99.99,,,-99.99,meteohub,2013-04-26 07:47:00,
2013-04-26 08:52:00,46.9,46.2,29.72,North,-999,-999.0,-999.0,97,-99.99,,,-99.99,meteohub,2013-04-26 07:52:00,
2013-04-26 08:57:00,47.1,46.0,29.72,North,-999,-999.0,-999.0,96,-99.99,,,-99.99,meteohub,2013-04-26 07:57:00,
2013-04-26 09:02:00,47.3,46.2,29.72,North,-999,-999.0,-999.0,96,-99.99,,,-99.99,meteohub,2013-04-26 08:02:00,
2013-04-26 09:07:00,47.7,46.6,29.72,North,-999,-999.0,-999.0,96,-99.99,,,-99.99,meteohub,2013-04-26 08:07:00,
2013-04-26 09:12:00,48.0,46.6,29.72,North,-999,-999.0,-999.0,95,-99.99,,,-99.99,meteohub,2013-04-26 08:12:00,
2013-04-26 09:17:00,48.2,46.6,29.72,North,-999,-999.0,-999.0,94,-99.99,,,-99.99,meteohub,2013-04-26 08:17:00,
2013-04-26 09:22:00,48.6,46.6,29.72,North,-999,-999.0,-999.0,93,-99.99,,,-99.99,meteohub,2013-04-26 08:22:00,
2013-04-26 09:27:00,49.1,46.9,29.72,North,-999,-999.0,-999.0,92,-99.99,,,-99.99,meteohub,2013-04-26 08:27:00,
2013-04-26 09:32:00,49.8,46.9,29.72,North,-999,-999.0,-999.0,90,-99.99,,,-99.99,meteohub,2013-04-26 08:32:00,
2013-04-26 09:37:00,50.2,46.8,29.72,North,-999,-999.0,-999.0,88,-99.99,,,-99.99,meteohub,2013-04-26 08:37:00,
2013-04-26 09:42:00,50.9,46.9,29.72,North,-999,-999.0,-999.0,86,-99.99,,,-99.99,meteohub,2013-04-26 08:42:00,
2013-04-26 09:47:00,51.1,46.8,29.72,North,-999,-999.0,-999.0,85,-99.99,,,-99.99,meteohub,2013-04-26 08:47:00,
2013-04-26 09:52:00,52.0,45.3,29.69,North,-999,-999.0,-999.0,78,-99.99,,,-99.99,meteohub,2013-04-26 08:52:00,
2013-04-26 09:57:00,52.0,45.3,29.69,North,-999,-999.0,-999.0,78,-99.99,,,-99.99,meteohub,2013-04-26 08:57:00,
2013-04-26 10:02:00,52.9,44.1,29.69,North,-999,-999.0,-999.0,72,-99.99,,,-99.99,meteohub,2013-04-26 09:02:00,
2013-04-26 10:07:00,52.5,43.3,29.72,North,-999,-999.0,-999.0,71,-99.99,,,-99.99,meteohub,2013-04-26 09:07:00,
2013-04-26 10:12:00,53.2,44.4,29.72,North,-999,-999.0,-999.0,72,-99.99,,,-99.99,meteohub,2013-04-26 09:12:00,
2013-04-26 10:17:00,55.4,44.6,29.72,North,-999,-999.0,-999.0,67,-99.99,,,-99.99,meteohub,2013-04-26 09:17:00,
2013-04-26 10:22:00,57.2,44.8,29.72,North,-999,-999.0,-999.0,63,-99.99,,,-99.99,meteohub,2013-04-26 09:22:00,
2013-04-26 10:27:00,56.7,42.4,29.72,North,-999,-999.0,-999.0,59,-99.99,,,-99.99,meteohub,2013-04-26 09:27:00,
2013-04-26 10:32:00,56.8,40.8,29.72,North,-999,-999.0,-999.0,55,-99.99,,,-99.99,meteohub,2013-04-26 09:32:00,
2013-04-26 10:37:00,57.6,38.1,29.72,North,-999,-999.0,-999.0,48,-99.99,,,-99.99,meteohub,2013-04-26 09:37:00,
2013-04-26 10:42:00,59.2,40.1,29.72,North,-999,-999.0,-999.0,49,-99.99,,,-99.99,meteohub,2013-04-26 09:42:00,
2013-04-26 10:47:00,59.7,40.1,29.72,North,-999,-999.0,-999.0,48,-99.99,,,-99.99,meteohub,2013-04-26 09:47:00,
2013-04-26 10:52:00,60.4,39.0,29.72,North,-999,-999.0,-999.0,45,-99.99,,,-99.99,meteohub,2013-04-26 09:52:00,
2013-04-26 10:57:00,59.0,36.0,29.72,North,-999,-999.0,-999.0,42,-99.99,,,-99.99,meteohub,2013-04-26 09:57:00,
2013-04-26 11:02:00,56.1,35.1,29.72,North,-999,-999.0,-999.0,45,-99.99,,,-99.99,meteohub,2013-04-26 10:02:00,
2013-04-26 11:07:00,55.4,35.1,29.69,North,-999,-999.0,-999.0,46,-99.99,,,-99.99,meteohub,2013-04-26 10:07:00,
2013-04-26 11:12:00,58.1,37.4,29.69,North,-999,-999.0,-999.0,46,-99.99,,,-99.99,meteohub,2013-04-26 10:12:00,
2013-04-26 11:17:00,61.0,39.0,29.69,North,-999,-999.0,-999.0,44,-99.99,,,-99.99,meteohub,2013-04-26 10:17:00,
2013-04-26 11:22:00,62.2,40.1,29.69,North,-999,-999.0,-999.0,44,-99.99,,,-99.99,meteohub,2013-04-26 10:22:00,
2013-04-26 11:27:00,61.5,38.3,29.69,North,-999,-999.0,-999.0,42,-99.99,,,-99.99,meteohub,2013-04-26 10:27:00,
2013-04-26 11:32:00,58.6,34.3,29.69,North,-999,-999.0,-999.0,40,-99.99,,,-99.99,meteohub,2013-04-26 10:32:00,
2013-04-26 11:37:00,56.1,32.7,29.69,North,-999,-999.0,-999.0,41,-99.99,,,-99.99,meteohub,2013-04-26 10:37:00,
2013-04-26 11:42:00,54.9,34.0,29.69,North,-999,-999.0,-999.0,45,-99.99,,,-99.99,meteohub,2013-04-26 10:42:00,
2013-04-26 11:47:00,53.8,32.9,29.69,North,-999,-999.0,-999.0,45,-99.99,,,-99.99,meteohub,2013-04-26 10:47:00,
2013-04-26 11:52:00,53.6,33.4,29.69,North,-999,-999.0,-999.0,46,-99.99,,,-99.99,meteohub,2013-04-26 10:52:00,
2013-04-26 11:57:00,58.5,38.8,29.69,North,-999,-999.0,-999.0,48,-99.99,,,-99.99,meteohub,2013-04-26 10:57:00,
2013-04-26 12:02:00,60.8,38.8,29.69,North,-999,-999.0,-999.0,44,-99.99,,,-99.99,meteohub,2013-04-26 11:02:00,
2013-04-26 12:07:00,57.6,34.7,29.69,North,-999,-999.0,-999.0,42,-99.99,,,-99.99,meteohub,2013-04-26 11:07:00,
2013-04-26 12:12:00,54.1,30.9,29.69,North,-999,-999.0,-999.0,41,-99.99,,,-99.99,meteohub,2013-04-26 11:12:00,
2013-04-26 12:17:00,53.2,31.3,29.69,North,-999,-999.0,-999.0,43,-99.99,,,-99.99,meteohub,2013-04-26 11:17:00,
2013-04-26 12:22:00,58.1,36.3,29.69,North,-999,-999.0,-999.0,44,-99.99,,,-99.99,meteohub,2013-04-26 11:22:00,
2013-04-26 12:27:00,60.3,36.0,29.69,North,-999,-999.0,-999.0,40,-99.99,,,-99.99,meteohub,2013-04-26 11:27:00,
2013-04-26 12:32:00,59.7,33.4,29.69,North,-999,-999.0,-999.0,37,-99.99,,,-99.99,meteohub,2013-04-26 11:32:00,
2013-04-26 12:37:00,61.9,34.7,29.66,North,-999,-999.0,-999.0,36,-99.99,,,-99.99,meteohub,2013-04-26 11:37:00,
2013-04-26 12:42:00,61.7,33.1,29.66,North,-999,-999.0,-999.0,34,-99.99,,,-99.99,meteohub,2013-04-26 11:42:00,
2013-04-26 12:47:00,59.2,30.9,29.66,North,-999,-999.0,-999.0,34,-99.99,,,-99.99,meteohub,2013-04-26 11:47:00,
2013-04-26 12:52:00,57.7,30.4,29.66,North,-999,-999.0,-999.0,35,-99.99,,,-99.99,meteohub,2013-04-26 11:52:00,
2013-04-26 12:57:00,55.9,29.5,29.66,North,-999,-999.0,-999.0,36,-99.99,,,-99.99,meteohub,2013-04-26 11:57:00,
2013-04-26 13:02:00,55.0,29.3,29.66,North,-999,-999.0,-999.0,37,-99.99,,,-99.99,meteohub,2013-04-26 12:02:00,
2013-04-26 13:07:00,55.2,30.0,29.66,North,-999,-999.0,-999.0,38,-99.99,,,-99.99,meteohub,2013-04-26 12:07:00,
2013-04-26 13:12:00,55.4,30.2,29.66,North,-999,-999.0,-999.0,38,-99.99,,,-99.99,meteohub,2013-04-26 12:12:00,
2013-04-26 13:17:00,56.3,30.4,29.66,North,-999,-999.0,-999.0,37,-99.99,,,-99.99,meteohub,2013-04-26 12:17:00,
2013-04-26 13:22:00,56.3,30.4,29.66,North,-999,-999.0,-999.0,37,-99.99,,,-99.99,meteohub,2013-04-26 12:22:00,
2013-04-26 13:27:00,59.7,32.7,29.66,North,-999,-999.0,-999.0,36,-99.99,,,-99.99,meteohub,2013-04-26 12:27:00,
2013-04-26 13:32:00,56.5,29.8,29.66,North,-999,-999.0,-999.0,36,-99.99,,,-99.99,meteohub,2013-04-26 12:32:00,
2013-04-26 13:37:00,54.9,28.4,29.66,North,-999,-999.0,-999.0,36,-99.99,,,-99.99,meteohub,2013-04-26 12:37:00,
2013-04-26 13:42:00,59.2,31.6,29.66,North,-999,-999.0,-999.0,35,-99.99,,,-99.99,meteohub,2013-04-26 12:42:00,
2013-04-26 13:47:00,56.7,30.0,29.66,North,-999,-999.0,-999.0,36,-99.99,,,-99.99,meteohub,2013-04-26 12:47:00,
2013-04-26 13:52:00,55.6,29.8,29.66,North,-999,-999.0,-999.0,37,-99.99,,,-99.99,meteohub,2013-04-26 12:52:00,
2013-04-26 13:57:00,58.1,32.0,29.66,North,-999,-999.0,-999.0,37,-99.99,,,-99.99,meteohub,2013-04-26 12:57:00,
2013-04-26 14:02:00,61.7,34.5,29.66,North,-999,-999.0,-999.0,36,-99.99,,,-99.99,meteohub,2013-04-26 13:02:00,
2013-04-26 14:07:00,63.3,34.5,29.66,North,-999,-999.0,-999.0,34,-99.99,,,-99.99,meteohub,2013-04-26 13:07:00,
2013-04-26 14:12:00,61.0,32.5,29.66,North,-999,-999.0,-999.0,34,-99.99,,,-99.99,meteohub,2013-04-26 13:12:00,
2013-04-26 14:17:00,58.6,31.1,29.66,North,-999,-999.0,-999.0,35,-99.99,,,-99.99,meteohub,2013-04-26 13:17:00,
2013-04-26 14:22:00,56.3,29.1,29.66,North,-999,-999.0,-999.0,35,-99.99,,,-99.99,meteohub,2013-04-26 13:22:00,
2013-04-26 14:27:00,57.0,29.7,29.66,North,-999,-999.0,-999.0,35,-99.99,,,-99.99,meteohub,2013-04-26 13:27:00,
2013-04-26 14:32:00,58.8,31.3,29.66,North,-999,-999.0,-999.0,35,-99.99,,,-99.99,meteohub,2013-04-26 13:32:00,
2013-04-26 14:37:00,57.9,29.8,29.66,North,-999,-999.0,-999.0,34,-99.99,,,-99.99,meteohub,2013-04-26 13:37:00,
2013-04-26 14:42:00,59.4,29.5,29.66,North,-999,-999.0,-999.0,32,-99.99,,,-99.99,meteohub,2013-04-26 13:42:00,
2013-04-26 14:47:00,61.5,31.5,29.66,North,-999,-999.0,-999.0,32,-99.99,,,-99.99,meteohub,2013-04-26 13:47:00,
2013-04-26 14:52:00,63.1,32.9,29.66,North,-999,-999.0,-999.0,32,-99.99,,,-99.99,meteohub,2013-04-26 13:52:00,
2013-04-26 14:57:00,63.9,31.8,29.66,North,-999,-999.0,-999.0,30,-99.99,,,-99.99,meteohub,2013-04-26 13:57:00,
2013-04-26 15:02:00,65.3,34.0,29.66,North,-999,-999.0,-999.0,31,-99.99,,,-99.99,meteohub,2013-04-26 14:02:00,
2013-04-26 15:07:00,60.3,27.9,29.66,North,-999,-999.0,-999.0,29,-99.99,,,-99.99,meteohub,2013-04-26 14:07:00,
2013-04-26 15:12:00,57.0,25.9,29.66,North,-999,-999.0,-999.0,30,-99.99,,,-99.99,meteohub,2013-04-26 14:12:00,
2013-04-26 15:17:00,59.2,29.3,29.66,North,-999,-999.0,-999.0,32,-99.99,,,-99.99,meteohub,2013-04-26 14:17:00,
2013-04-26 15:22:00,59.0,28.4,29.66,North,-999,-999.0,-999.0,31,-99.99,,,-99.99,meteohub,2013-04-26 14:22:00,
2013-04-26 15:27:00,61.0,30.9,29.66,North,-999,-999.0,-999.0,32,-99.99,,,-99.99,meteohub,2013-04-26 14:27:00,
2013-04-26 15:32:00,60.1,28.6,29.66,North,-999,-999.0,-999.0,30,-99.99,,,-99.99,meteohub,2013-04-26 14:32:00,
2013-04-26 15:37:00,58.6,27.3,29.63,North,-999,-999.0,-999.0,30,-99.99,,,-99.99,meteohub,2013-04-26 14:37:00,
2013-04-26 15:42:00,61.5,28.9,29.63,North,-999,-999.0,-999.0,29,-99.99,,,-99.99,meteohub,2013-04-26 14:42:00,
2013-04-26 15:47:00,59.7,27.5,29.63,North,-999,-999.0,-999.0,29,-99.99,,,-99.99,meteohub,2013-04-26 14:47:00,
2013-04-26 15:52:00,60.4,27.3,29.63,North,-999,-999.0,-999.0,28,-99.99,,,-99.99,meteohub,2013-04-26 14:52:00,
2013-04-26 15:57:00,61.0,26.8,29.63,North,-999,-999.0,-999.0,27,-99.99,,,-99.99,meteohub,2013-04-26 14:57:00,
2013-04-26 16:02:00,60.8,26.6,29.63,North,-999,-999.0,-999.0,27,-99.99,,,-99.99,meteohub,2013-04-26 15:02:00,
2013-04-26 16:12:00,59.2,26.1,29.63,North,-999,-999.0,-999.0,28,-99.99,,,-99.99,meteohub,2013-04-26 15:12:00,
2013-04-26 16:17:00,59.9,26.8,29.63,North,-999,-999.0,-999.0,28,-99.99,,,-99.99,meteohub,2013-04-26 15:17:00,
2013-04-26 16:22:00,58.3,25.3,29.63,North,-999,-999.0,-999.0,28,-99.99,,,-99.99,meteohub,2013-04-26 15:22:00,
2013-04-26 16:27:00,56.7,24.8,29.63,North,-999,-999.0,-999.0,29,-99.99,,,-99.99,meteohub,2013-04-26 15:27:00,
2013-04-26 16:32:00,55.6,24.6,29.63,North,-999,-999.0,-999.0,30,-99.99,,,-99.99,meteohub,2013-04-26 15:32:00,
2013-04-26 16:37:00,58.6,28.9,29.63,North,-999,-999.0,-999.0,32,-99.99,,,-99.99,meteohub,2013-04-26 15:37:00,
2013-04-26 16:42:00,60.1,27.9,29.63,North,-999,-999.0,-999.0,29,-99.99,,,-99.99,meteohub,2013-04-26 15:42:00,
2013-04-26 16:47:00,60.1,27.0,29.63,North,-999,-999.0,-999.0,28,-99.99,,,-99.99,meteohub,2013-04-26 15:47:00,
2013-04-26 16:52:00,60.1,27.0,29.63,North,-999,-999.0,-999.0,28,-99.99,,,-99.99,meteohub,2013-04-26 15:52:00,
2013-04-26 16:57:00,59.7,25.7,29.63,North,-999,-999.0,-999.0,27,-99.99,,,-99.99,meteohub,2013-04-26 15:57:00,
2013-04-26 17:02:00,58.8,25.9,29.63,North,-999,-999.0,-999.0,28,-99.99,,,-99.99,meteohub,2013-04-26 16:02:00,
2013-04-26 17:07:00,59.4,26.2,29.63,North,-999,-999.0,-999.0,28,-99.99,,,-99.99,meteohub,2013-04-26 16:07:00,
2013-04-26 17:12:00,58.6,25.7,29.63,North,-999,-999.0,-999.0,28,-99.99,,,-99.99,meteohub,2013-04-26 16:12:00,
2013-04-26 17:17:00,58.5,25.5,29.63,North,-999,-999.0,-999.0,28,-99.99,,,-99.99,meteohub,2013-04-26 16:17:00,
2013-04-26 17:22:00,58.8,25.9,29.63,North,-999,-999.0,-999.0,28,-99.99,,,-99.99,meteohub,2013-04-26 16:22:00,
2013-04-26 17:27:00,59.2,26.1,29.63,North,-999,-999.0,-999.0,28,-99.99,,,-99.99,meteohub,2013-04-26 16:27:00,
2013-04-26 17:32:00,60.4,27.3,29.63,North,-999,-999.0,-999.0,28,-99.99,,,-99.99,meteohub,2013-04-26 16:32:00,
2013-04-26 17:37:00,59.0,26.1,29.63,North,-999,-999.0,-999.0,28,-99.99,,,-99.99,meteohub,2013-04-26 16:37:00,
2013-04-26 17:42:00,59.4,26.2,29.63,North,-999,-999.0,-999.0,28,-99.99,,,-99.99,meteohub,2013-04-26 16:42:00,
2013-04-26 17:47:00,59.7,26.6,29.63,North,-999,-999.0,-999.0,28,-99.99,,,-99.99,meteohub,2013-04-26 16:47:00,
2013-04-26 17:52:00,59.5,26.4,29.60,North,-999,-999.0,-999.0,28,-99.99,,,-99.99,meteohub,2013-04-26 16:52:00,
2013-04-26 17:57:00,59.0,26.1,29.60,North,-999,-999.0,-999.0,28,-99.99,,,-99.99,meteohub,2013-04-26 16:57:00,
2013-04-26 18:02:00,58.5,25.5,29.60,North,-999,-999.0,-999.0,28,-99.99,,,-99.99,meteohub,2013-04-26 17:02:00,
2013-04-26 18:07:00,57.0,23.4,29.63,North,-999,-999.0,-999.0,27,-99.99,,,-99.99,meteohub,2013-04-26 17:07:00,
2013-04-26 18:12:00,56.7,23.2,29.63,North,-999,-999.0,-999.0,27,-99.99,,,-99.99,meteohub,2013-04-26 17:12:00,
2013-04-26 18:17:00,55.2,22.8,29.63,North,-999,-999.0,-999.0,28,-99.99,,,-99.99,meteohub,2013-04-26 17:17:00,
2013-04-26 18:22:00,53.8,21.6,29.60,North,-999,-999.0,-999.0,28,-99.99,,,-99.99,meteohub,2013-04-26 17:22:00,
2013-04-26 18:27:00,53.1,21.7,29.60,North,-999,-999.0,-999.0,29,-99.99,,,-99.99,meteohub,2013-04-26 17:27:00,
2013-04-26 18:32:00,52.3,21.0,29.60,North,-999,-999.0,-999.0,29,-99.99,,,-99.99,meteohub,2013-04-26 17:32:00,
2013-04-26 18:37:00,52.0,21.6,29.63,North,-999,-999.0,-999.0,30,-99.99,,,-99.99,meteohub,2013-04-26 17:37:00,
2013-04-26 18:42:00,51.8,21.4,29.63,North,-999,-999.0,-999.0,30,-99.99,,,-99.99,meteohub,2013-04-26 17:42:00,
2013-04-26 18:47:00,52.9,21.6,29.63,North,-999,-999.0,-999.0,29,-99.99,,,-99.99,meteohub,2013-04-26 17:47:00,
2013-04-26 18:52:00,54.5,23.0,29.63,North,-999,-999.0,-999.0,29,-99.99,,,-99.99,meteohub,2013-04-26 17:52:00,
2013-04-26 18:57:00,54.9,23.2,29.63,North,-999,-999.0,-999.0,29,-99.99,,,-99.99,meteohub,2013-04-26 17:57:00,
2013-04-26 19:02:00,54.5,23.0,29.63,North,-999,-999.0,-999.0,29,-99.99,,,-99.99,meteohub,2013-04-26 18:02:00,
2013-04-26 19:07:00,53.1,21.7,29.63,North,-999,-999.0,-999.0,29,-99.99,,,-99.99,meteohub,2013-04-26 18:07:00,
2013-04-26 19:12:00,52.2,21.7,29.63,North,-999,-999.0,-999.0,30,-99.99,,,-99.99,meteohub,2013-04-26 18:12:00,
2013-04-26 19:17:00,51.6,22.1,29.63,North,-999,-999.0,-999.0,31,-99.99,,,-99.99,meteohub,2013-04-26 18:17:00,
2013-04-26 19:22:00,51.1,21.6,29.63,North,-999,-999.0,-999.0,31,-99.99,,,-99.99,meteohub,2013-04-26 18:22:00,
2013-04-26 19:27:00,50.9,21.4,29.63,North,-999,-999.0,-999.0,31,-99.99,,,-99.99,meteohub,2013-04-26 18:27:00,
2013-04-26 19:32:00,51.6,22.1,29.63,North,-999,-999.0,-999.0,31,-99.99,,,-99.99,meteohub,2013-04-26 18:32:00,
2013-04-26 19:37:00,51.8,21.4,29.60,North,-999,-999.0,-999.0,30,-99.99,,,-99.99,meteohub,2013-04-26 18:37:00,
2013-04-26 19:42:00,52.0,22.3,29.60,North,-999,-999.0,-999.0,31,-99.99,,,-99.99,meteohub,2013-04-26 18:42:00,
2013-04-26 19:47:00,51.6,22.1,29.60,North,-999,-999.0,-999.0,31,-99.99,,,-99.99,meteohub,2013-04-26 18:47:00,
2013-04-26 19:52:00,50.9,20.7,29.63,North,-999,-999.0,-999.0,30,-99.99,,,-99.99,meteohub,2013-04-26 18:52:00,
2013-04-26 19:57:00,50.2,19.9,29.63,North,-999,-999.0,-999.0,30,-99.99,,,-99.99,meteohub,2013-04-26 18:57:00,
2013-04-26 20:02:00,49.8,19.8,29.63,North,-999,-999.0,-999.0,30,-99.99,,,-99.99,meteohub,2013-04-26 19:02:00,
2013-04-26 20:07:00,49.5,20.1,29.63,North,-999,-999.0,-999.0,31,-99.99,,,-99.99,meteohub,2013-04-26 19:07:00,
2013-04-26 20:12:00,49.1,20.7,29.63,North,-999,-999.0,-999.0,32,-99.99,,,-99.99,meteohub,2013-04-26 19:12:00,
2013-04-26 20:17:00,48.7,21.7,29.63,North,-999,-999.0,-999.0,34,-99.99,,,-99.99,meteohub,2013-04-26 19:17:00,
2013-04-26 20:22:00,48.0,22.5,29.63,North,-999,-999.0,-999.0,36,-99.99,,,-99.99,meteohub,2013-04-26 19:22:00,
2013-04-26 20:27:00,47.7,22.6,29.63,North,-999,-999.0,-999.0,37,-99.99,,,-99.99,meteohub,2013-04-26 19:27:00,
2013-04-26 20:32:00,47.1,22.8,29.63,North,-999,-999.0,-999.0,38,-99.99,,,-99.99,meteohub,2013-04-26 19:32:00,
2013-04-26 20:37:00,46.8,22.5,29.63,North,-999,-999.0,-999.0,38,-99.99,,,-99.99,meteohub,2013-04-26 19:37:00,
2013-04-26 20:42:00,46.6,22.5,29.63,North,-999,-999.0,-999.0,38,-99.99,,,-99.99,meteohub,2013-04-26 19:42:00,
2013-04-26 20:47:00,46.2,22.6,29.63,North,-999,-999.0,-999.0,39,-99.99,,,-99.99,meteohub,2013-04-26 19:47:00,
2013-04-26 20:52:00,45.9,22.3,29.63,North,-999,-999.0,-999.0,39,-99.99,,,-99.99,meteohub,2013-04-26 19:52:00,
2013-04-26 20:57:00,45.5,22.1,29.63,North,-999,-999.0,-999.0,39,-99.99,,,-99.99,meteohub,2013-04-26 19:57:00,
2013-04-26 21:02:00,45.1,21.7,29.63,North,-999,-999.0,-999.0,39,-99.99,,,-99.99,meteohub,2013-04-26 20:02:00,
2013-04-26 21:07:00,44.8,21.9,29.63,North,-999,-999.0,-999.0,40,-99.99,,,-99.99,meteohub,2013-04-26 20:07:00,
2013-04-26 21:12:00,44.4,21.7,29.63,North,-999,-999.0,-999.0,40,-99.99,,,-99.99,meteohub,2013-04-26 20:12:00,
2013-04-26 21:17:00,44.4,22.3,29.63,North,-999,-999.0,-999.0,41,-99.99,,,-99.99,meteohub,2013-04-26 20:17:00,
2013-04-26 21:22:00,44.2,22.1,29.63,North,-999,-999.0,-999.0,41,-99.99,,,-99.99,meteohub,2013-04-26 20:22:00,
2013-04-26 21:27:00,44.1,21.9,29.63,North,-999,-999.0,-999.0,41,-99.99,,,-99.99,meteohub,2013-04-26 20:27:00,
2013-04-26 21:32:00,43.9,21.7,29.63,North,-999,-999.0,-999.0,41,-99.99,,,-99.99,meteohub,2013-04-26 20:32:00,
2013-04-26 21:37:00,43.3,21.9,29.63,North,-999,-999.0,-999.0,42,-99.99,,,-99.99,meteohub,2013-04-26 20:37:00,
2013-04-26 21:42:00,43.2,21.7,29.63,North,-999,-999.0,-999.0,42,-99.99,,,-99.99,meteohub,2013-04-26 20:42:00,
2013-04-26 21:47:00,42.8,21.9,29.63,North,-999,-999.0,-999.0,43,-99.99,,,-99.99,meteohub,2013-04-26 20:47:00,
2013-04-26 21:52:00,42.8,21.9,29.63,North,-999,-999.0,-999.0,43,-99.99,,,-99.99,meteohub,2013-04-26 20:52:00,
2013-04-26 21:57:00,42.4,22.1,29.63,North,-999,-999.0,-999.0,44,-99.99,,,-99.99,meteohub,2013-04-26 20:57:00,
2013-04-26 22:02:00,42.1,21.7,29.63,North,-999,-999.0,-999.0,44,-99.99,,,-99.99,meteohub,2013-04-26 21:02:00,
2013-04-26 22:07:00,41.7,21.9,29.63,North,-999,-999.0,-999.0,45,-99.99,,,-99.99,meteohub,2013-04-26 21:07:00,
2013-04-26 22:12:00,41.2,21.6,29.63,North,-999,-999.0,-999.0,45,-99.99,,,-99.99,meteohub,2013-04-26 21:12:00,
2013-04-26 22:17:00,40.8,21.7,29.63,North,-999,-999.0,-999.0,46,-99.99,,,-99.99,meteohub,2013-04-26 21:17:00,
2013-04-26 22:22:00,40.3,21.2,29.63,North,-999,-999.0,-999.0,46,-99.99,,,-99.99,meteohub,2013-04-26 21:22:00,
2013-04-26 22:27:00,39.7,21.2,29.63,North,-999,-999.0,-999.0,47,-99.99,,,-99.99,meteohub,2013-04-26 21:27:00,
2013-04-26 22:32:00,39.0,21.0,29.63,North,-999,-999.0,-999.0,48,-99.99,,,-99.99,meteohub,2013-04-26 21:32:00,
2013-04-26 22:37:00,38.7,21.2,29.63,North,-999,-999.0,-999.0,49,-99.99,,,-99.99,meteohub,2013-04-26 21:37:00,
2013-04-26 22:42:00,38.5,21.0,29.63,North,-999,-999.0,-999.0,49,-99.99,,,-99.99,meteohub,2013-04-26 21:42:00,
2013-04-26 22:47:00,39.0,21.9,29.63,North,-999,-999.0,-999.0,50,-99.99,,,-99.99,meteohub,2013-04-26 21:47:00,
2013-04-26 22:52:00,39.0,21.9,29.63,North,-999,-999.0,-999.0,50,-99.99,,,-99.99,meteohub,2013-04-26 21:52:00,
2013-04-26 22:57:00,39.2,22.6,29.63,North,-999,-999.0,-999.0,51,-99.99,,,-99.99,meteohub,2013-04-26 21:57:00,
2013-04-26 23:02:00,39.9,23.7,29.63,North,-999,-999.0,-999.0,52,-99.99,,,-99.99,meteohub,2013-04-26 22:02:00,
2013-04-26 23:07:00,39.9,23.7,29.63,North,-999,-999.0,-999.0,52,-99.99,,,-99.99,meteohub,2013-04-26 22:07:00,
2013-04-26 23:12:00,39.9,23.7,29.63,North,-999,-999.0,-999.0,52,-99.99,,,-99.99,meteohub,2013-04-26 22:12:00,
2013-04-26 23:17:00,39.9,23.7,29.63,North,-999,-999.0,-999.0,52,-99.99,,,-99.99,meteohub,2013-04-26 22:17:00,
2013-04-26 23:22:00,39.7,23.5,29.63,North,-999,-999.0,-999.0,52,-99.99,,,-99.99,meteohub,2013-04-26 22:22:00,
2013-04-26 23:27:00,39.7,23.5,29.63,North,-999,-999.0,-999.0,52,-99.99,,,-99.99,meteohub,2013-04-26 22:27:00,
2013-04-26 23:32:00,39.2,23.2,29.63,North,-999,-999.0,-999.0,52,-99.99,,,-99.99,meteohub,2013-04-26 22:32:00,
2013-04-26 23:37:00,38.8,22.8,29.63,North,-999,-999.0,-999.0,52,-99.99,,,-99.99,meteohub,2013-04-26 22:37:00,
2013-04-26 23:42:00,38.7,23.0,29.63,North,-999,-999.0,-999.0,53,-99.99,,,-99.99,meteohub,2013-04-26 22:42:00,
2013-04-26 23:47:00,38.7,23.0,29.63,North,-999,-999.0,-999.0,53,-99.99,,,-99.99,meteohub,2013-04-26 22:47:00,
2013-04-26 23:52:00,38.3,22.6,29.63,North,-999,-999.0,-999.0,53,-99.99,,,-99.99,meteohub,2013-04-26 22:52:00,
2013-04-26 23:57:00,38.5,23.4,29.63,North,-999,-999.0,-999.0,54,-99.99,,,-99.99,meteohub,2013-04-26 22:57:00,